[[{"header":{"parameterUnit":"m.s-1","parameterCategory":1,"la1":30.2992,"la2":30.254,"lo1":-89.0895,"lo2":-89.0443,"dy":0.0025,"dx":0.0025,"nx":19,"ny":19,"refTime":"2026-05-14T21:00:00:Z","depth":0,"parameterNumber":2,"parameterNumberName":"U-component_of_WINDS"},"data":[0,0,0,-2.297,-2.2969,-2.2943,-2.2943,-2.2932,-2.2932,0,0,0,0,0,0,0,0,0,0,0,-2.299,-2.299,-2.297,-2.2969,-2.2943,-2.2943,-2.2932,-2.2932,0,0,0,0,0,0,0,0,0,0,0,-2.299,-2.299,-2.2991,-2.2969,-2.2943,-2.2943,-2.2932,-2.2944,0,0,0,0,0,0,0,0,0,0,-2.2966,-2.2996,-2.299,-2.2991,-2.2969,-2.2943,-2.2943,-2.2944,-2.2943,-2.2954,0,-2.2965,0,-2.2949,-2.2933,-2.2933,0,0,0,-2.296,-2.2997,-2.2979,-2.2991,-2.2969,-2.2943,-2.2952,-2.2943,-2.2942,-2.2952,-2.2965,-2.2964,-2.2948,-2.2933,-2.2933,-2.3022,-2.3023,0,0,-2.2961,-2.2992,-2.298,-2.2979,-2.2983,-2.2953,-2.2952,-2.2942,-2.2958,-2.2965,-2.2963,-2.2948,-2.2933,-2.2933,-2.3021,-2.3023,0,0,0,-2.2972,-2.2994,-2.2975,-2.298,-2.2974,-2.2953,-2.2951,-2.2958,-2.295,-2.2963,-2.2948,-2.2933,-2.2933,-2.302,-2.3022,-2.3093,0,0,0,-2.2972,-2.2999,-2.2976,-2.2994,-2.2974,-2.2965,-2.2967,-2.295,-2.2948,-2.2948,-2.2933,-2.2933,-2.3019,-2.3021,-2.3089,-2.3121,0,0,0,-2.2987,-2.3001,-2.3002,-2.2996,-2.2986,-2.2965,-2.2955,-2.2949,-2.294,-2.2933,-2.2933,-2.3019,-2.3021,-2.3085,-2.3114,-2.3152,0,0,0,-2.3012,-2.3065,-2.3003,-2.3057,-2.2986,-2.3009,-2.2955,-2.2971,-2.2973,-2.2933,-2.302,-2.3022,-2.3084,-2.3111,-2.3149,-2.3189,-2.3209,0,0,-2.3096,-2.3076,-2.3105,-2.3049,-2.3091,-2.3011,-2.3064,-2.3037,-2.3009,-2.302,-2.3021,-2.309,-2.3114,-2.3152,-2.3313,-2.3329,0,0,0,-2.3142,-2.3163,-2.3168,-2.3172,-2.3153,-2.314,-2.3103,-2.3094,-2.3101,-2.302,-2.3114,-2.3127,-2.3148,-2.3166,-2.3179,-2.3195,-2.3032,-2.3031,-2.3031,-2.3302,-2.3264,-2.331,-2.3269,-2.3275,-2.3237,-2.3237,-2.3218,-2.3178,-2.3201,-2.3203,-2.3306,-2.3327,-2.3337,-2.3354,-2.3223,-2.3223,-2.3224,-2.3224,-2.3419,-2.3443,-2.3391,-2.3416,-2.3376,-2.3398,-2.3365,-2.3336,-2.3351,-2.33,-2.3317,-2.3263,-2.3356,-2.3369,-2.3229,-2.3228,-2.3227,-2.3227,-2.3226,-2.3518,-2.3523,-2.3511,-2.3515,-2.3522,-2.3481,-2.3498,-2.3461,-2.3427,-2.3444,-2.3442,-2.3441,-2.3434,-2.3446,-2.3447,-2.3447,-2.3447,-2.3447,-2.3448,-2.3624,-2.3609,-2.3627,-2.3614,-2.3613,-2.3608,-2.3573,-2.3571,-2.356,-2.3532,-2.3532,-2.349,-2.3373,-2.3343,-2.3453,-2.3452,-2.3451,-2.3451,-2.345,-2.3753,-2.3719,-2.3747,-2.3746,-2.3729,-2.374,-2.3695,-2.3695,-2.3689,-2.3699,-2.3655,-2.3575,-2.3551,-2.354,-2.3515,-2.3663,-2.3663,-2.3663,-2.3663,-2.3835,-2.3821,-2.3842,-2.3843,-2.3841,-2.3804,-2.3839,-2.3814,-2.3783,-2.3777,-2.3752,-2.3717,-2.3707,-2.3689,-2.3675,-2.3651,-2.383,-2.383,-2.383,-2.3912,-2.3896,-2.3931,-2.3901,-2.3886,-2.3875,-2.3907,-2.3912,-2.387,-2.3836,-2.3772,-2.3765,-2.3708,-2.3691,-2.3653,-2.3631,-2.3587,0,0]},{"header":{"parameterUnit":"m.s-1","parameterCategory":1,"la1":30.2992,"la2":30.254,"lo1":-89.0895,"lo2":-89.0443,"dy":0.0025,"dx":0.0025,"nx":19,"ny":19,"refTime":"2026-05-14T21:00:00:Z","depth":0,"parameterNumber":3,"parameterNumberName":"V-component_of_WINDS"},"data":[0,0,0,2.9012,2.9012,2.9015,2.9016,2.901,2.901,0,0,0,0,0,0,0,0,0,0,0,2.9005,2.9005,2.9012,2.9012,2.9015,2.9016,2.901,2.901,0,0,0,0,0,0,0,0,0,0,0,2.9005,2.9005,2.9005,2.9012,2.9015,2.9016,2.901,2.9011,0,0,0,0,0,0,0,0,0,0,2.9009,2.8998,2.9005,2.9005,2.9012,2.9015,2.9016,2.9011,2.9011,2.9004,0,2.8998,0,2.9004,2.9009,2.9009,0,0,0,2.9015,2.8998,2.9004,2.9005,2.9012,2.9015,2.9015,2.9011,2.9011,2.9004,2.8998,2.8998,2.9004,2.9009,2.9009,2.8963,2.8962,0,0,2.9015,2.9003,2.9004,2.9004,2.9003,2.9015,2.9015,2.9011,2.9003,2.8998,2.8998,2.9004,2.9009,2.9009,2.8963,2.8963,0,0,0,2.9012,2.9003,2.9009,2.9004,2.9005,2.9015,2.9015,2.9004,2.9007,2.8998,2.9004,2.9009,2.9009,2.8964,2.8963,2.8932,0,0,0,2.9012,2.9001,2.9009,2.9001,2.9005,2.9005,2.9007,2.9007,2.9007,2.9004,2.9009,2.9009,2.8964,2.8963,2.8934,2.892,0,0,0,2.9007,2.9,2.8999,2.9,2.9002,2.9005,2.9008,2.9007,2.901,2.9009,2.9008,2.8964,2.8963,2.8936,2.8922,2.8904,0,0,0,2.8997,2.8971,2.8998,2.8971,2.9002,2.8986,2.9008,2.8997,2.8993,2.9009,2.8964,2.8963,2.8936,2.8924,2.8905,2.8886,2.8877,0,0,2.8958,2.8966,2.8951,2.8976,2.8952,2.8987,2.8959,2.8966,2.8976,2.8966,2.8965,2.8934,2.8922,2.8904,2.8831,2.8823,0,0,0,2.8934,2.8923,2.892,2.8916,2.8921,2.8924,2.8937,2.894,2.8932,2.8969,2.8923,2.8916,2.8906,2.8897,2.8891,2.8883,2.8959,2.8959,2.8959,2.886,2.8876,2.8852,2.8868,2.8864,2.8878,2.8875,2.8881,2.8898,2.8886,2.8883,2.8837,2.8826,2.8822,2.8813,2.8875,2.8874,2.8874,2.8874,2.8803,2.879,2.8813,2.8799,2.8815,2.8803,2.8815,2.8827,2.8818,2.884,2.8832,2.8855,2.8813,2.8806,2.8872,2.8873,2.8873,2.8873,2.8873,2.8756,2.8752,2.8757,2.8752,2.8747,2.8764,2.8754,2.8769,2.8784,2.8776,2.8774,2.8774,2.8777,2.8774,2.8774,2.8774,2.8773,2.8773,2.8773,2.8705,2.8711,2.8701,2.8705,2.8704,2.8705,2.8719,2.8719,2.8722,2.8734,2.8734,2.8751,2.8806,2.882,2.8771,2.8771,2.8771,2.8772,2.8772,2.8641,2.8658,2.8643,2.8642,2.8648,2.8641,2.8661,2.8659,2.8661,2.8655,2.8675,2.8713,2.8722,2.8727,2.8738,2.8672,2.8672,2.8672,2.8672,2.8601,2.8608,2.8595,2.8593,2.8593,2.861,2.8591,2.8601,2.8614,2.8616,2.8628,2.8645,2.8649,2.8656,2.8662,2.8673,2.8591,2.8591,2.8591,2.8562,2.857,2.8551,2.8565,2.8571,2.8575,2.8558,2.8554,2.8572,2.8588,2.8618,2.8621,2.8648,2.8656,2.8671,2.8681,2.8701,0,0]}]]